SL-8 R/B, 3131

Orbit data source: Space-Track

SL-8 R/B, 3131 is space debris in LEO originally from a launch on Tue, 20 Feb 1968 UTC launched from the Plesetsk Missile And Space Complex (PKMTR). Debris objects in space refer to the collection of defunct objects orbiting the Earth. Examples of debris include non-operational satellites, rocket bodies, and fragments generated from explosions, collisions, or faulty payload assembly.

Loading next visibility...
SL-8 R/B details
Identifier
3131, 1968-011B
Orbit
LEO
Last TLE update15 hours ago
Origin
Flag of CISRVSN (CIS)
ManufacturerYuzhnoe
MissionSpacecraft
Bus & MotorS3, Unknown motor
Mass1,434 kg wet, 1,434 kg dry
Launch date (UTC)
1968-02-20 (57 years ago)
Launch vehicleUnknown
Launch site
Plesetsk Missile And Space Complex (PKMTR)
Object type
Payload
Rocket body
Debris
Shape & HBRCyl, 4.2 m
Radar Cross Section10.179 m², Large (>1 m²)

Expand to show TLE details & history

TLE from 15 hours ago
0 SL-8 R/B
1 03131U 68011B   24356.58975403 -.00000058  00000-0 -10045-3 0  9993
2 03131  74.0485 207.4072 0014247 164.1164 196.0374 13.18013567733863
Epoch: 2024-12-21T14:09Z
Definitive object data (Epoch: 2024-12-21T14:09:14.748Z)
Latitude-0.00005°
Longitude-95.543°
Altitude1,205.152 km
Speed7.247 km/s
True Right ascension13h 49m 37s
True Declination0° 00' 00"
Sunlit
Object was in daylight at TLE epoch
Visualization TLE readout
Latitude49.99042°
Longitude-76.66754°
Altitude1,203.621 km
Speed7.255 km/s
Apparent Right ascension15h 34m 40s
Apparent Declination10° 00' 56"
Sunlit
Object is in daylight
Visualization observer readout
Local Sidereal Time04:04:07
Azimuth9.425° NNE
Elevation-39.604°
Doppler factor1
Orbital elements
Apogee altitude1,200.855 km
Perigee altitude1,179.29 km
Semi-major axis7,568.209 km
Eccentricity0.0014247
Inclination74.0485°
RAAN207.4072°
Arg. of periapsis164.1164°
True anomaly195.99237°
Mean anomaly196.0374°
Eccentric anomaly196.01488°
Mean motion3.2965 °/min
BSTAR-0.00010045
Orbital period109.21 mins
Loading maneuver chart data...
Loading historical data...
Loading historical data...
Loading historical data...
Loading historical data...
Loading historical data...
Loading historical data...
Loading historical data...
Other satellites on launch #11 in the year 1968 (1968-02-20 UTC)

SL-8 R/B Visibility forecast

Observer location: undefined°, undefined

Span
Click to sort rows by Start time (UTC) header in descending order
Start Az.
Max El. time (UTC)
Max El. Az.
Max El.
End time (UTC)
End Az.
10 mins2024-12-22 13:56:36.019Z139.041° SSE2024-12-22 14:01:36.019Z95.646° ESE20.111°2024-12-22 14:06:36.019Z50.227° ENE
13 mins2024-12-22 15:46:36.019Z210.727° SW2024-12-22 15:52:36.019Z297.781° NW42.815°2024-12-22 15:59:36.019Z14.046° NNE
5 mins2024-12-22 17:43:36.019Z297.512° NW2024-12-22 17:45:36.019Z314.809° NW13.169°2024-12-22 17:48:36.019Z339.57° N
6 mins2024-12-22 23:32:36.019Z28.453° NE2024-12-22 23:34:36.019Z46.519° ENE15.035°2024-12-22 23:38:36.019Z81.265° E
13 mins2024-12-23 01:21:36.019Z344.59° N2024-12-23 01:27:36.019Z73.954° E44.424°2024-12-23 01:34:36.019Z157.226° SSE
7 mins2024-12-23 03:14:36.019Z299.457° NW2024-12-23 03:17:36.019Z272.674° WNW16.763°2024-12-23 03:21:36.019Z236.112° WSW
|